loading
|

CZ-7A R/B, 60607

Orbit data source: Space-Track

CZ-7A R/B, 60607 is space debris in HEO originally from a launch on Thu, 22 Aug 2024 UTC launched from the Wenchang Satellite Launch Center (WSC). Debris objects in space refer to the collection of defunct objects orbiting the Earth. Examples of debris include non-operational satellites, rocket bodies, and fragments generated from explosions, collisions, or faulty payload assembly.

Loading next visibility...
Loading greatness...
CZ-7A R/B details
Identifier
60607, 2024-151B
Orbit
HEO
Last TLE update2 weeks ago
Origin
Flag of CNCASC (CN / PRC)
ManufacturerCALT
Mission statusUnknown
MissionUnknown
Bus & MotorCZ-3A STAGE 3, Unknown motor
Mass~2,800 kg wet, ~2,800 kg dry
Launch date (UTC)
2024-08-22 (3 weeks ago)
Launch vehicleUnknown
Launch site
Wenchang Satellite Launch Center (WSC)
Object type
Payload
Rocket body
Debris
Radar Cross SectionRCS unknown

Expand to show TLE details & history

TLE from 2 weeks ago
0 CZ-7A R/B
1 60607U 24151B   24247.17828704  .00829450  16382-5  18628-2 0  9998
2 60607  14.6957 176.6447 7136648 176.6235 201.0779  2.53358494   181
Epoch: 2024-09-03T04:16Z
Definitive object data (Epoch: 2024-09-03T04:16:44Z)
Latitude0.42666°
Longitude131.24985°
Altitude32,207.92 km
Speed1.767 km/s
True Right ascension11h 52m 55s
True Declination0° 25' 34"
Sunlit
Object was in daylight at TLE epoch
Predictive object data (real-time)
Latitude-1.40254°
Longitude118.34846°
Altitude28,147.659 km
Speed2.142 km/s
Apparent Right ascension10h 58m 51s
Apparent Declination-7° 06' 39"
Sunlit
Object is in daylight
Predictive observer data (real-time)
Local Sidereal Time22:41:29
Azimuth352.081° N
Elevation-56.965°
Doppler factor1
Orbital elements
Apogee32,580.312 km
Perigee131.406 km
Semi-major axis22,733.996 km
Eccentricity0.7136648
Inclination14.6957°
RAAN176.6447°
Arg. of periapsis176.6235°
True anomaly185.06027°
Mean anomaly201.0779°
Eccentric anomaly192.33953°
Mean motion0.63318 °/min
BSTAR0.0018628
Period568.56 mins
No data available
Other satellites on launch #151 in the year 2024 (2024-08-22 UTC)

CZ-7A R/B Visibility forecast

Observer location: 39.9160978°, -105.1181434

CZ-7A R/B is not visible in the next 10 days
Span
Click to sort rows by Start time (UTC) header in descending order
Start Az.
Max El. time (UTC)
Max El. Az.
Max El.
End time (UTC)
End Az.